Voltar ao catálogo

COSMOS 1867 COOLANT

AtivoLEO
NORAD 39641·DEBRIS·🇷🇺 Russia

Lançado Jul 10, 1987 de Baikonur Cosmodrome

Loading…

Próximas Passagens (próximas 24 horas)

TLE

AtualizadoSource: Space-Track

Época: Sep 14, 2026, 02:14 UTC

1 39641U 87060J   26257.09359191  .00000133  00000-0  83706-4 0  9998
2 39641  65.0050 121.9524 0018918 281.6312  78.2650 14.33791948649236

Acompanhe COSMOS 1867 COOLANT em tempo real com AllMySat

Download on the App Store